Bridgeport, CT

9:56 PM EDT on April 25, 2017 (GMT -0400)
Sikorsky Memorial

Weather History for KBDR - July, 2012

Change the Weather History Date:

Wednesday, July 4, 2012

  Actual Average Record
Temperature  
Mean Temperature 80 °F 73 °F  
Max Temperature 88 °F 81 °F 98 °F (1949)
Min Temperature 72 °F 65 °F 52 °F (1986)
Degree Days  
Heating Degree Days 0 0  
Month to date heating degree days 0 0  
Since 1 June heating degree days 19 32  
Since 1 July heating degree days 0 0  
Cooling Degree Days 15 8  
Month to date cooling degree days 56 32  
Year to date cooling degree days 282 199  
Since 1 June cooling degree days 223 175  
Growing Degree Days 30 (Base 50)    
Moisture  
Dew Point 71 °F    
Average Humidity 75    
Maximum Humidity 94    
Minimum Humidity 55    
Precipitation  
Precipitation 0.29 in 0.09 in 1.14 in (1950)
Month to date precipitation 0.29 0.35  
Year to date precipitation 17.82 21.83  
Snow  
Snow 0.00 in 0.00 in 0.00 in (2002)
Month to date snowfall 0.0 0.0  
Since 1 July snowfall 0.0 0.0  
Snow Depth 0.00 in    
Sea Level Pressure  
Sea Level Pressure 29.78 in    
Wind  
Wind Speed 6 mph (SW)    
Max Wind Speed 15 mph    
Max Gust Speed 20 mph    
Visibility 8 miles    
Events Rain , Thunderstorm    
T = Trace of Precipitation, MM = Missing Value Source: NWS Daily Summary

Daily Weather History Graph

Daily Weather History Graph

Search for Another Location

Airport or City:

Trip Planner

Search our weather history database for the weather conditions in past years. The results will help you decide how hot, cold, wet, or windy it might be!

Date:

Astronomy

Jul. 04, 2012 Rise Set
Actual Time 5:25 AM EDT 8:28 PM EDT
Civil Twilight 4:52 AM EDT 9:01 PM EDT
Nautical Twilight 4:09 AM EDT 9:44 PM EDT
Astronomical Twilight 3:19 AM EDT 10:34 PM EDT
Moon 9:04 PM EDT (7/4) 6:25 AM EDT (7/4)
Length of Visible Light 16h 09m
Length of Day
15h 02m
Full, 99% of the Moon is Illuminated
Jul 4
Full
Jul 10
Last Quarter
Jul 19
New
Jul 26
First Quarter
Aug 1
Full

Hourly Weather History & Observations

Time (EDT) Temp. Heat Index Dew Point Humidity Pressure Visibility Wind Dir Wind Speed Gust Speed Precip Events Conditions
12:52 AM 75.0 °F - 70.0 °F 84% 29.83 in 10.0 mi Calm Calm - N/A   Overcast
1:52 AM 75.0 °F - 72.0 °F 90% 29.82 in 8.0 mi Calm Calm - 0.00 in Rain Light Rain
2:52 AM 72.0 °F - 71.1 °F 97% 29.81 in 7.0 mi Calm Calm - 0.00 in   Mostly Cloudy
3:52 AM 73.0 °F - 72.0 °F 96% 29.80 in 5.0 mi Calm Calm - 0.00 in Rain Light Rain
4:31 AM 73.4 °F - 71.6 °F 94% 29.82 in 2.5 mi WSW 3.5 mph - 0.04 in Rain Light Rain
4:38 AM 73.4 °F - 71.6 °F 94% 29.82 in 7.0 mi Calm Calm - 0.04 in Rain Light Rain
4:52 AM 73.0 °F - 71.1 °F 93% 29.82 in 6.0 mi Calm Calm - 0.04 in Rain Light Rain
5:52 AM 73.0 °F - 68.0 °F 84% 29.83 in 10.0 mi NW 4.6 mph - 0.01 in   Scattered Clouds
6:52 AM 73.0 °F - 69.1 °F 87% 29.85 in 10.0 mi West 3.5 mph - 0.00 in Rain Light Rain
7:52 AM 73.0 °F - 69.1 °F 87% 29.83 in 10.0 mi SW 5.8 mph - 0.00 in   Clear
8:52 AM 73.9 °F - 69.1 °F 85% 29.83 in 10.0 mi SW 5.8 mph - N/A   Partly Cloudy
9:52 AM 75.9 °F - 69.1 °F 79% 29.82 in 10.0 mi SW 9.2 mph - N/A   Partly Cloudy
10:52 AM 75.9 °F - 69.1 °F 79% 29.81 in 10.0 mi SW 10.4 mph - N/A   Clear
11:52 AM 78.1 °F - 69.1 °F 74% 29.80 in 10.0 mi SW 12.7 mph - N/A   Clear
12:52 PM 82.0 °F 84.9 °F 68.0 °F 62% 29.78 in 10.0 mi SW 12.7 mph - N/A   Clear
1:52 PM 82.9 °F 86.5 °F 69.1 °F 63% 29.77 in 10.0 mi SSW 12.7 mph - N/A   Partly Cloudy
2:52 PM 84.0 °F 87.8 °F 69.1 °F 61% 29.77 in 10.0 mi SW 11.5 mph - N/A   Scattered Clouds
3:52 PM 87.1 °F 91.3 °F 69.1 °F 55% 29.76 in 10.0 mi SSW 11.5 mph - N/A   Partly Cloudy
4:52 PM 84.9 °F 88.8 °F 69.1 °F 59% 29.74 in 10.0 mi SSW 9.2 mph - N/A   Mostly Cloudy
5:52 PM 88.0 °F 92.1 °F 69.1 °F 53% 29.72 in 10.0 mi SSW 9.2 mph - N/A   Clear
6:52 PM 82.0 °F 84.9 °F 68.0 °F 62% 29.72 in 10.0 mi SSW 8.1 mph - N/A   Partly Cloudy
7:52 PM 79.0 °F - 73.0 °F 82% 29.73 in 5.0 mi Calm Calm - 0.00 in Rain Light Rain
8:52 PM 78.1 °F - 71.1 °F 79% 29.73 in 10.0 mi SW 3.5 mph - 0.01 in   Partly Cloudy
9:52 PM 77.0 °F - 71.1 °F 82% 29.74 in 8.0 mi Calm Calm - N/A   Mostly Cloudy
10:08 PM 77.0 °F - 71.6 °F 83% 29.76 in 5.0 mi WSW 5.8 mph - N/A Thunderstorm Unknown
10:14 PM 77.0 °F - 71.6 °F 83% 29.76 in 1.5 mi WSW 5.8 mph - 0.00 in Rain , Thunderstorm Light Thunderstorms and Rain
10:23 PM 75.2 °F - 73.4 °F 94% 29.74 in 1.2 mi North 5.8 mph - 0.23 in Rain Light Rain
10:31 PM 75.2 °F - 73.4 °F 94% 29.74 in 8.0 mi South 3.5 mph - 0.23 in   Mostly Cloudy
10:52 PM 75.9 °F - 73.9 °F 94% 29.74 in 6.0 mi SSW 3.5 mph - 0.23 in   Clear
11:52 PM 75.0 °F - 73.0 °F 94% 29.72 in 5.0 mi Calm Calm - N/A   Clear